Regional Weather Roundup
Issued by NWS Cleveland, OH

Home | Current Version | Previous Version | Text Only | Print | Product List | Glossary On
Versions: 1 2 3 4 5 6 7 8 9 10 11 12 13 14 15 16 17 18 19 20 21 22 23 24 25 26 27 28 29 30 31 32 33 34 35 36 37 38 39 40 41 42 43 44 45 46 47 48 49 50
000
ASUS41 KCLE 031710
RWRCLE
OHIO REGIONAL WEATHER ROUNDUP
NATIONAL WEATHER SERVICE WILMINGTON, OH
1200 PM EST TUE MAR 03 2015

NOTE: "FAIR" INDICATES FEW OR NO CLOUDS BELOW 12,000 FEET WITH NO
SIGNIFICANT WEATHER AND/OR OBSTRUCTIONS TO VISIBILITY.

OHZ001>008-015>018-024>027-034-035-043-044-031800-
   NORTHWEST OHIO

CITY           SKY/WX    TMP DP  RH WIND       PRES   REMARKS
DEFIANCE       CLOUDY    30  24  78 SE8G17    29.85F WCI  22
FINDLAY        FRZ RAIN  31  24  75 SE16      29.84F WCI  20
TOLEDO EXPRESS FRZ RAIN  28  22  78 SE5       29.88F WCI  23
TOLEDO EXEC    MIX PCPN  30  21  69 SE13      29.87F WCI  20
LIMA           FRZ RAIN  32  26  78 S21G26    29.84F WCI  20
$$

OHZ009>014-019>023-028>033-038-089-031800-
   NORTHEAST OHIO

CITY           SKY/WX    TMP DP  RH WIND       PRES   REMARKS
CLE-HOPKINS    FRZ RAIN  28  19  69 SE17      29.94F WCI  16
CLE-LAKEFRONT  CLOUDY    28  19  69 SE13G21   29.93F WCI  17
CUY CO. ARPT   FRZ DRZL  27  21  80 SE16      29.95F WCI  14
LORAIN-ELYRIA  FRZ RAIN  27  20  75 S16       29.90F WCI  15
ASHTABULA      FRZ RAIN  25  21  85 SE14      29.98F WCI  13
AKRON-CANTON   FRZ RAIN  28  17  63 SE10      29.96F WCI  19
WOOSTER        FRZ RAIN  27  19  72 SE14      29.92F WCI  16
MANSFIELD      CLOUDY    30  20  66 SE15      29.87F WCI  19
YOUNGSTOWN     FRZ RAIN  24  17  74 SE16      29.97F WCI  11
$$

OHZ042-051>053-060>062-070>072-077>081-031800-
  SOUTHWEST OHIO

CITY           SKY/WX    TMP DP  RH WIND       PRES   REMARKS
CINC-COVINGTON LGT RAIN  36  33  89 S13       29.90F FOG
CINC-LUNKEN    LGT RAIN  33  32  96 S6        29.94F FOG     WCI  28
HAMILTON       LGT RAIN  34  31  88 VRB6      29.92F FOG     WCI  29
DAYTON         FRZ RAIN  32  29  88 S15       29.87F FOG     WCI  22
WRIGHT-PAT AFB LGT RAIN  32  29  88 SE12      29.88F WCI  23
DAYTON GENERAL CLOUDY    33  30  88 S20       29.87F FOG     WCI  21
WILMINGTON     LGT RAIN  33  30  88 S15       29.90F FOG     WCI  23
$$

OHZ036-037-039>041-045>050-054>059-063>069-073>076-082>088-031800-
  CENTRAL AND SOUTHEAST OHIO

CITY           SKY/WX    TMP DP  RH WIND       PRES   REMARKS
COLUMBUS       LGT RAIN  32  22  66 S10       29.95F WCI  24
OSU AIRPORT    LGT RAIN  32  22  66 S14G24    29.92F WCI  22
BOLTON FIELD   LGT RAIN  30  25  80 SE10      29.94F WCI  21
RICKENBACK AFB MIX PCPN  32  26  76 SE9       29.94F WCI  24
NEWARK         CLOUDY    34  22  61 S8        29.95F WCI  27
MARION         MIX PCPN  31  21  66 S17G23    29.89F WCI  19
LANCASTER      MIX PCPN  33  24  69 SE12      29.96F WCI  24
ZANESVILLE     CLOUDY    33  20  58 SE10      29.96F WCI  25
NEW PHILLY     CLOUDY    32  18  56 SE7       29.99F WCI  26
$$


USA.gov is the U.S. government's official web portal to all federal, state and local government web resources and services.